sat.trackr.live / text

‹ back to catalog

STARLINK-31819

NORAD 59738 · 2024-090J

PAYLOAD ACTIVE UNKNOWN

§ Identity

Operator
Country
US
Launch date
2024-05-13
Launch site
AFETR
Launch vehicle
Mass (kg)
RCS (m²)

Purposes: comms

External: N2YO · Heavens-Above · Gunter

§ Orbital elements

Epoch: 2026-09-21T09:58:00.609312Z

Period
94.27 min
Inclination
43.0022°
Eccentricity
0.0000813
Mean motion
15.27574487 rev/d
Perigee alt
482.5 km
Apogee alt
483.6 km
Semi-major
6,861.2 km
B*
-1.7617e-6
RAAN
158.1556°
Arg perigee
271.9435°
Mean anomaly
88.1324°
Rev number
13,337

§ Raw data

STARLINK-318191 59738U 24090J   26264.41528483 -.00000310  00000+0 -17617-5 0  99942 59738  43.0022 158.1556 0000813 271.9435  88.1324 15.27574487133372

JSON: /api/v1/satellites/59738 · /tle

For live sub-satellite position, see the globe view (requires WebGL).

§ Visibility from observer

Set your observer location to see the next 7 days of passes ≥ 10°. The values pass through the URL so the page stays shareable.

No JS? Fill the form by hand. The geolocation button needs JavaScript.